Location: Unspecified
(0.0000°N, 0.0000°E)
Time: 15:40:40
(UTC+00:00)

Explorer 11/Cluster Stage 4 - Visible Passes

Search period start: 25 September 2016 00:00
Search period end: 05 October 2016 00:00
Orbit: 467 x 1265 km, 28.8° (Epoch: 25 September)

Date Brightness Start Highest point End Pass type
(mag) Time Alt. Az. Time Alt. Az. Time Alt. Az.
25 Sep 9.3 05:19:52 10° NNW 05:23:55 16° NNE 05:27:36 10° NE visible
25 Sep 7.0 19:53:50 10° WSW 19:58:50 68° W 19:58:50 68° W visible
26 Sep 9.1 05:09:16 10° NNW 05:14:20 20° NNE 05:18:48 10° ENE visible
26 Sep 7.0 19:44:20 10° WSW 19:49:47 62° NNW 19:50:05 61° NNW visible
27 Sep 8.9 04:58:48 10° NNW 05:04:40 24° NNE 05:09:49 10° ENE visible
27 Sep 7.3 19:34:56 10° WSW 19:40:04 49° NNW 19:41:20 42° N visible
28 Sep 9.6 03:04:22 11° NNE 03:04:26 11° NNE 03:06:42 10° NNE visible
28 Sep 8.7 04:48:26 10° NNW 04:54:58 29° NNE 05:00:40 10° E visible
28 Sep 7.7 19:25:36 10° W 19:30:24 38° NNW 19:32:34 29° NNE visible
29 Sep 9.6 02:55:31 13° NNE 02:55:31 13° NNE 02:58:23 10° NE visible
29 Sep 8.5 04:38:08 10° NW 04:45:13 35° NNE 04:51:22 10° E visible
29 Sep 8.0 19:16:23 10° W 19:20:45 30° NNW 19:23:46 19° NNE visible
30 Sep 9.5 02:46:45 15° NE 02:46:45 15° NE 02:49:39 10° NE visible
30 Sep 8.2 04:28:59 14° NW 04:35:26 42° NNE 04:41:59 10° E visible
30 Sep 8.3 19:07:17 10° WNW 19:11:09 23° NNW 19:14:56 13° NNE visible
01 Oct 9.5 02:38:00 16° NE 02:38:00 16° NE 02:40:42 10° ENE visible
01 Oct 8.0 04:20:14 21° NW 04:25:36 51° NNE 04:32:30 10° ESE visible
01 Oct 8.5 18:58:20 10° WNW 19:01:35 18° NNW 19:05:16 10° NNE visible
02 Oct 9.6 02:29:15 17° ENE 02:29:15 17° ENE 02:31:35 10° ENE visible
02 Oct 7.7 04:11:29 30° NW 04:15:43 61° NNE 04:22:56 10° ESE visible
02 Oct 8.7 18:49:43 10° NW 18:52:02 13° NNW 18:54:34 10° N visible
03 Oct 9.7 02:20:29 16° ENE 02:20:29 16° ENE 02:22:19 10° ENE visible
03 Oct 7.5 04:02:43 42° NW 04:05:48 72° NNE 04:13:17 10° ESE visible
04 Oct 9.8 02:11:42 14° E 02:11:42 14° E 02:12:56 10° E visible
04 Oct 7.4 03:53:56 57° NW 03:55:51 84° NNE 04:03:33 10° ESE visible
